Mosby, MO

1:37 AM CDT on October 23, 2019 (GMT -0500)
Clay County Regional

Weather History for KGPH - August, 2019

Change the Weather History Date:

Monday, August 26, 2019

  Actual Average (WUND) Record (WUND)
Temperature  
Mean Temperature 70 °F -  
Max Temperature 73 °F - - (-1)
Min Temperature 66 °F - - (-1)
Cooling Degree Days 4    
Growing Degree Days 20 (Base 50)    
Moisture  
Dew Point 66 °F    
Average Humidity 89    
Maximum Humidity 94    
Minimum Humidity 83    
Precipitation  
Precipitation 0.00 in - - ()
Sea Level Pressure  
Sea Level Pressure 29.79 in    
Wind  
Wind Speed 1 mph ()    
Max Wind Speed 24 mph    
Max Gust Speed 30 mph    
Visibility 9.7 miles    
Events Rain , Thunderstorm    
Averages and records for this station are not official NWS values.
T = Trace of Precipitation, MM = Missing Value Source: Averaged Metar Reports

Daily Weather History Graph

Daily Weather History Graph

Search for Another Location

Airport or City:

Astronomy

Aug. 26, 2019 Rise Set
Actual Time 6:40 AM CDT 7:57 PM CDT
Civil Twilight 6:12 AM CDT 8:25 PM CDT
Nautical Twilight 5:38 AM CDT 8:58 PM CDT
Astronomical Twilight 5:03 AM CDT 9:33 PM CDT
Moon 2:07 AM CDT (8/26) 5:20 PM CDT (8/26)
Length of Visible Light 14h 13m
Length of Day
13h 17m
Waning Crescent, 19% of the Moon is Illuminated
Aug 26
Waning Crescent
Aug 30
New
Sep 5
First Quarter
Sep 13
Full
Sep 21
Last Quarter

Hourly Weather History & Observations

Time (CDT) Temp. Dew Point Humidity Pressure Visibility Wind Dir Wind Speed Gust Speed Precip Events Conditions
12:35 AM 68.0 °F 64.4 °F 88% 29.80 in 10.0 mi Calm Calm - N/A   Overcast
12:55 AM 68.0 °F 64.4 °F 88% 29.80 in 10.0 mi Calm Calm - N/A   Overcast
1:15 AM 68.0 °F 64.4 °F 88% 29.80 in 10.0 mi Calm Calm - N/A   Overcast
1:55 AM 68.0 °F 64.4 °F 88% 29.80 in 7.0 mi Calm Calm - N/A   Overcast
2:15 AM 68.0 °F 64.4 °F 88% 29.80 in 10.0 mi Calm Calm - N/A   Overcast
2:35 AM 68.0 °F 64.4 °F 88% 29.80 in 10.0 mi Calm Calm - N/A   Overcast
2:55 AM 68.0 °F 64.4 °F 88% 29.79 in 7.0 mi Calm Calm - N/A   Overcast
3:15 AM 68.0 °F 64.4 °F 88% 29.80 in 4.0 mi Calm Calm - N/A   Overcast
3:35 AM 68.0 °F 64.4 °F 88% 29.80 in 7.0 mi Calm Calm - N/A   Overcast
3:55 AM 68.0 °F 64.4 °F 88% 29.80 in 10.0 mi Calm Calm - N/A   Overcast
4:15 AM 68.0 °F 64.4 °F 88% 29.79 in 10.0 mi Calm Calm - N/A   Overcast
4:35 AM 68.0 °F 64.4 °F 88% 29.79 in 10.0 mi Calm Calm - N/A   Overcast
4:55 AM 68.0 °F 64.4 °F 88% 29.78 in 10.0 mi Calm Calm - N/A   Overcast
5:15 AM 66.2 °F 64.4 °F 94% 29.77 in 10.0 mi Calm Calm - N/A   Overcast
5:35 AM 66.2 °F 64.4 °F 94% 29.77 in 10.0 mi Calm Calm - N/A   Overcast
5:55 AM 66.2 °F 64.4 °F 94% 29.78 in 10.0 mi Calm Calm - N/A   Overcast
6:15 AM 66.2 °F 64.4 °F 94% 29.80 in 10.0 mi Calm Calm - N/A   Overcast
6:55 AM 66.2 °F 64.4 °F 94% 29.81 in 10.0 mi Calm Calm - N/A   Overcast
7:15 AM 66.2 °F 64.4 °F 94% 29.80 in 10.0 mi Calm Calm - N/A   Overcast
7:35 AM 66.2 °F 64.4 °F 94% 29.78 in 10.0 mi Calm Calm - N/A   Overcast
7:55 AM 66.2 °F 64.4 °F 94% 29.79 in 10.0 mi Calm Calm - N/A   Overcast
8:15 AM 66.2 °F 64.4 °F 94% 29.80 in 10.0 mi Calm Calm - N/A   Overcast
9:15 AM 68.0 °F 64.4 °F 88% 29.80 in 10.0 mi Calm Calm - N/A   Overcast
9:55 AM 68.0 °F 64.4 °F 88% 29.78 in 10.0 mi Calm Calm - N/A Thunderstorm Overcast
10:15 AM 68.0 °F 64.4 °F 88% 29.79 in 10.0 mi Calm Calm - N/A Thunderstorm Overcast
10:35 AM 68.0 °F 64.4 °F 88% 29.83 in 10.0 mi Calm Calm - N/A Rain , Thunderstorm Light Thunderstorms and Rain
10:55 AM 68.0 °F 64.4 °F 88% 29.82 in 10.0 mi Calm Calm - N/A Rain , Thunderstorm Light Thunderstorms and Rain
11:15 AM 68.0 °F 64.4 °F 88% 29.82 in 10.0 mi Calm Calm - N/A Rain , Thunderstorm Light Thunderstorms and Rain
11:35 AM 68.0 °F 64.4 °F 88% 29.90 in 7.0 mi NW 9.2 mph - N/A Rain , Thunderstorm Thunderstorms and Rain
12:15 PM 66.2 °F 64.4 °F 94% 29.65 in 7.0 mi ESE 24.2 mph 29.9 mph N/A Rain , Thunderstorm Light Thunderstorms and Rain
12:35 PM 66.2 °F 64.4 °F 94% 29.69 in 10.0 mi SW 4.6 mph - N/A   Scattered Clouds
12:55 PM 68.0 °F 64.4 °F 88% 29.70 in 10.0 mi South 6.9 mph - N/A   Scattered Clouds
1:15 PM 68.0 °F 64.4 °F 88% 29.72 in 10.0 mi SW 8.1 mph - N/A   Clear
1:35 PM 68.0 °F 64.4 °F 88% 29.73 in 10.0 mi Calm Calm - N/A   Scattered Clouds
1:55 PM 68.0 °F 66.2 °F 94% 29.73 in 10.0 mi Calm Calm - N/A   Scattered Clouds
2:15 PM 69.8 °F 68.0 °F 94% 29.73 in 10.0 mi Calm Calm - N/A   Mostly Cloudy
2:35 PM 69.8 °F 68.0 °F 94% 29.74 in 10.0 mi Calm Calm - N/A   Mostly Cloudy
2:55 PM 71.6 °F 68.0 °F 88% 29.74 in 10.0 mi Calm Calm - N/A   Mostly Cloudy
3:15 PM 71.6 °F 66.2 °F 83% 29.74 in 10.0 mi Calm Calm - N/A   Mostly Cloudy
3:55 PM 73.4 °F 68.0 °F 83% 29.76 in 10.0 mi Calm Calm - N/A   Overcast
4:15 PM 73.4 °F 68.0 °F 83% 29.76 in 10.0 mi Calm Calm - N/A   Mostly Cloudy
4:35 PM 73.4 °F 68.0 °F 83% 29.77 in 10.0 mi Calm Calm - N/A   Mostly Cloudy
4:55 PM 73.4 °F 68.0 °F 83% 29.78 in 10.0 mi North 8.1 mph - N/A   Overcast
5:15 PM 73.4 °F 68.0 °F 83% 29.78 in 10.0 mi North 9.2 mph - N/A   Overcast
5:55 PM 73.4 °F 68.0 °F 83% 29.78 in 10.0 mi Calm Calm - N/A   Overcast
6:15 PM 73.4 °F 68.0 °F 83% 29.77 in 10.0 mi Calm Calm - N/A   Overcast
6:35 PM 73.4 °F 68.0 °F 83% 29.78 in 10.0 mi North 10.4 mph - N/A   Mostly Cloudy
6:55 PM 73.4 °F 68.0 °F 83% 29.79 in 10.0 mi North 8.1 mph - N/A   Mostly Cloudy
7:35 PM 73.4 °F 68.0 °F 83% 29.80 in 10.0 mi Calm Calm - N/A   Overcast
7:55 PM 73.4 °F 68.0 °F 83% 29.80 in 10.0 mi Calm Calm - N/A   Overcast
8:15 PM 71.6 °F 68.0 °F 88% 29.81 in 10.0 mi Calm Calm - N/A   Overcast
8:35 PM 71.6 °F 68.0 °F 88% 29.82 in 10.0 mi Calm Calm - N/A   Overcast
9:15 PM 69.8 °F 68.0 °F 94% 29.83 in 10.0 mi Calm Calm - N/A   Mostly Cloudy
9:35 PM 69.8 °F 68.0 °F 94% 29.83 in 10.0 mi Calm Calm - N/A   Mostly Cloudy
9:55 PM 69.8 °F 68.0 °F 94% 29.84 in 10.0 mi Calm Calm - N/A   Mostly Cloudy
10:15 PM 69.8 °F 68.0 °F 94% 29.84 in 10.0 mi Calm Calm - N/A   Mostly Cloudy
10:35 PM 69.8 °F 68.0 °F 94% 29.85 in 10.0 mi Calm Calm - N/A   Mostly Cloudy
10:55 PM 68.0 °F 66.2 °F 94% 29.85 in 10.0 mi Calm Calm - N/A   Mostly Cloudy
11:15 PM 68.0 °F 66.2 °F 94% 29.85 in 10.0 mi Calm Calm - N/A   Scattered Clouds
11:35 PM 68.0 °F 66.2 °F 94% 29.87 in 10.0 mi Calm Calm - N/A   Scattered Clouds
11:55 PM 68.0 °F 66.2 °F 94% 29.87 in 10.0 mi Calm Calm - N/A   Scattered Clouds